CW5646 Weather Reports


time (UTC)temp
C
wind
direction
speed
KPH
gust
KPH
rain 1hr
cm
rain 24hr
cm
rain mn
cm
humidity
%
barometer
mb
20260507143741 10 70 1.6 6.4 0.00 0.00 0.00 83 1020.6
20260507142257 10 256 1.6 4.8 0.00 0.00 0.00 83 1020.6
20260507140719 10 170 0.0 1.6 0.00 0.00 0.00 84 1020.4
20260507135242 10 170 0.0 0.0 0.00 0.00 0.00 84 1020.3
20260507133729 10 185 0.0 0.0 0.00 0.00 0.00 84 1020.3
20260507132214 10 185 0.0 0.0 0.00 0.00 0.00 85 1020.2
20260507130731 10 189 0.0 0.0 0.00 0.00 0.00 85 1020.3
20260507125223 10 189 0.0 0.0 0.00 0.00 0.00 85 1020.3
20260507123745 10 189 0.0 0.0 0.00 0.00 0.00 84 1020.3
20260507122240 10 189 0.0 0.0 0.00 0.00 0.00 85 1020.3
20260507120722 10 189 0.0 0.0 0.00 0.00 0.00 86 1020.4
20260507115224 11 189 0.0 0.0 0.00 0.00 0.00 85 1020.5
20260507113720 11 189 0.0 0.0 0.00 0.00 0.00 84 1020.6
20260507112241 11 189 0.0 0.0 0.00 0.00 0.00 84 1020.7
20260507110730 11 189 0.0 0.0 0.00 0.00 0.00 85 1020.7
20260507105223 11 189 0.0 0.0 0.00 0.00 0.00 84 1020.8
20260507103741 11 189 0.0 0.0 0.00 0.00 0.00 85 1020.8
20260507102224 11 189 0.0 0.0 0.00 0.00 0.00 85 1020.8
20260507100739 11 189 0.0 0.0 0.00 0.00 0.00 85 1020.9
20260507095223 11 189 0.0 0.0 0.00 0.00 0.00 86 1021.1
20260507093738 11 189 0.0 0.0 0.00 0.00 0.00 86 1021.3
20260507092218 11 189 0.0 0.0 0.00 0.00 0.00 86 1021.3
20260507090732 11 189 0.0 0.0 0.00 0.00 0.00 86 1021.4
20260507085217 11 189 0.0 0.0 0.00 0.00 0.00 86 1021.3
20260507083725 11 189 0.0 0.0 0.00 0.00 0.00 86 1021.3
20260507082218 11 189 0.0 0.0 0.00 0.00 0.00 86 1021.3
20260507080726 11 189 0.0 0.0 0.00 0.00 0.00 86 1021.3
20260507075218 11 189 0.0 0.0 0.00 0.00 0.00 85 1021.3
20260507073733 11 189 0.0 1.6 0.00 0.00 0.00 84 1021.3
20260507072226 11 189 0.0 1.6 0.00 0.00 0.00 85 1021.3
20260507070742 11 189 0.0 3.2 0.00 0.00 0.00 85 1021.3
20260507065229 11 189 0.0 3.2 0.00 0.00 0.00 85 1021.3
20260507063727 12 189 0.0 3.2 0.00 0.00 0.00 85 1021.3
20260507062243 12 143 0.0 3.2 0.00 0.00 0.00 86 1021.3
20260507060725 12 143 1.6 3.2 0.00 0.00 0.00 86 1021.3
20260507055238 12 144 1.6 6.4 0.00 0.00 0.00 86 1021.3
20260507053727 12 152 0.0 3.2 0.00 0.00 0.00 86 1021.3
20260507052222 12 152 0.0 3.2 0.00 0.00 0.00 85 1021.3
20260507050727 12 152 0.0 3.2 0.00 0.00 0.00 84 1021.3
20260507045229 12 153 1.6 6.4 0.00 0.00 0.00 84 1021.3
20260507043725 13 141 1.6 6.4 0.00 0.00 0.00 83 1021.2
20260507042215 13 122 1.6 4.8 0.00 0.00 0.00 83 1021.0
20260507040726 13 171 1.6 4.8 0.00 0.00 0.00 83 1020.8
20260507035217 13 180 3.2 6.4 0.00 0.00 0.00 83 1020.7
20260507033719 14 116 1.6 3.2 0.00 0.00 0.00 83 1020.5
20260507032241 14 81 0.0 3.2 0.00 0.00 0.00 83 1020.3
20260507030721 15 52 0.0 4.8 0.00 0.00 0.00 80 1020.2
20260507025215 15 101 0.0 3.2 0.00 0.00 0.00 82 1020.1
20260507023742 15 94 1.6 3.2 0.00 0.00 0.00 81 1019.8
20260507022215 15 112 0.0 3.2 0.00 0.00 0.00 80 1019.8
20260507020726 16 112 1.6 6.4 0.00 0.00 0.00 77 1019.9
20260507015215 16 129 0.0 8.0 0.00 0.00 0.00 77 1020.1
20260507013718 17 66 1.6 6.4 0.00 0.00 0.00 75 1020.1
20260507012217 17 328 3.2 8.0 0.00 0.00 0.00 75 1019.9
20260507010754 17 116 1.6 4.8 0.00 0.00 0.00 76 1019.9
20260507005220 18 69 0.0 9.7 0.00 0.00 0.00 76 1019.9
20260507003750 18 193 0.0 8.0 0.00 0.00 0.00 76 1019.8
20260507002215 18 110 1.6 6.4 0.00 0.00 0.00 76 1019.8
20260507000717 18 94 1.6 8.0 0.00 0.00 0.00 75 1019.8
20260506235242 18 137 1.6 4.8 0.00 0.00 0.00 73 1019.8
20260506233734 18 149 3.2 4.8 0.00 0.00 0.00 76 1019.7
20260506232250 18 113 3.2 8.0 0.00 0.00 0.00 73 1019.8
20260506230729 19 104 3.2 6.4 0.00 0.00 0.00 72 1020.1
20260506225215 20 97 0.0 4.8 0.00 0.00 0.00 73 1020.2
20260506223735 20 96 1.6 6.4 0.00 0.00 0.00 70 1020.3
20260506222220 20 52 1.6 4.8 0.00 0.00 0.00 72 1020.3
20260506220720 20 306 1.6 6.4 0.00 0.00 0.00 71 1020.3
20260506215225 20 241 1.6 8.0 0.00 0.00 0.00 69 1020.3
20260506213801 20 185 4.8 12.9 0.00 0.00 0.00 72 1020.4
20260506212233 20 255 4.8 11.3 0.00 0.00 0.00 70 1020.6
20260506210714 18 243 0.0 8.0 0.00 0.00 0.00 76 1020.8
20260506205230 18 117 1.6 6.4 0.00 0.00 0.00 76 1020.8
20260506203738 18 213 0.0 8.0 0.00 0.00 0.00 76 1020.7
20260506202227 17 141 3.2 11.3 0.00 0.00 0.00 76 1020.7
20260506200725 18 114 3.2 8.0 0.00 0.00 0.00 77 1020.8
20260506195218 16 170 1.6 3.2 0.00 0.00 0.00 79 1021.1
20260506193712 17 244 1.6 8.0 0.00 0.00 0.00 80 1021.2
20260506192217 17 245 1.6 6.4 0.00 0.00 0.00 78 1020.9
20260506190725 16 88 0.0 3.2 0.00 0.00 0.00 80 1020.9
20260506185217 16 100 1.6 6.4 0.00 0.00 0.00 80 1020.8
20260506183715 16 110 1.6 6.4 0.00 0.00 0.00 80 1020.8
20260506182222 16 264 4.8 6.4 0.00 0.00 0.00 81 1020.8
20260506180719 15 234 0.0 4.8 0.00 0.00 0.00 84 1020.9
20260506175239 14 147 0.0 3.2 0.00 0.00 0.00 86 1020.9
20260506173723 14 145 0.0 3.2 0.00 0.00 0.00 86 1020.7
20260506172215 13 144 0.0 3.2 0.00 0.00 0.00 88 1020.7
20260506170719 13 85 0.0 3.2 0.00 0.00 0.00 89 1020.7
20260506165222 13 43 0.0 3.2 0.00 0.00 0.00 89 1020.7
20260506163714 13 118 0.0 0.0 0.00 0.00 0.00 89 1020.8
20260506162215 13 118 0.0 3.2 0.00 0.00 0.00 89 1020.5
20260506160728 13 118 1.6 4.8 0.00 0.00 0.00 90 1020.3
20260506155243 12 111 3.2 8.0 0.00 0.00 0.00 89 1020.0
20260506153730 12 104 3.2 8.0 0.00 0.00 0.00 90 1020.3
20260506152222 12 83 0.0 3.2 0.00 0.00 0.00 90 1020.7
20260506150712 12 71 0.0 1.6 0.00 0.00 0.00 90 1020.7
20260506145224 12 77 0.0 4.8 0.00 0.00 0.00 90 1020.3